When you browse on this site, cookies collect data to enhance your experience and personalize the content and advertising you see.
Visit our Privacy Policy to learn more. By continuing to use the site, you agree to this use of cookies and data.
  • In Schweiz
  • Länderverzeichnis
  • Für 7 Tage
  • Wassertemperatur
  • Wetterkarte
  • Widgets
  • user-avatar
    Anmelden

    Stündliche Wetter Korçe

    Heute, 3 Juni, Mittwoch

    Zeit Temperatur Niederschläge Wind Luftdruck Luftfeuchtigkeit
    00:00 +7°C° 0 mm 1 m/S 661 mmHg 84%
    01:00 +6°C° 0 mm 0 m/S 661 mmHg 84%
    02:00 +6°C° 0 mm 0 m/S 661 mmHg 84%
    03:00 +6°C° 0 mm 0 m/S 660 mmHg 84%
    04:00 +6°C° 0 mm 1 m/S 660 mmHg 83%
    05:00 +8°C° 0 mm 1 m/S 661 mmHg 79%
    06:00 +10°C° 0 mm 1 m/S 662 mmHg 74%
    07:00 +12°C° 0 mm 0 m/S 662 mmHg 69%
    08:00 +14°C° 0 mm 1 m/S 663 mmHg 63%
    09:00 +15°C° 0 mm 2 m/S 663 mmHg 57%
    10:00 +16°C° 0 mm 3 m/S 663 mmHg 50%
    11:00 +17°C° 0 mm 3 m/S 663 mmHg 50%
    12:00 +17°C° 0 mm 3 m/S 663 mmHg 50%
    13:00 +17°C° 0 mm 3 m/S 664 mmHg 49%
    14:00 +17°C° 0 mm 3 m/S 663 mmHg 51%
    15:00 +17°C° 0 mm 3 m/S 663 mmHg 53%
    16:00 +16°C° 0 mm 3 m/S 663 mmHg 56%
    17:00 +14°C° 0 mm 3 m/S 663 mmHg 63%
    18:00 +13°C° 0 mm 2 m/S 662 mmHg 70%
    19:00 +11°C° 0 mm 1 m/S 662 mmHg 78%
    20:00 +10°C° 0 mm 1 m/S 662 mmHg 79%
    21:00 +9°C° 0 mm 1 m/S 662 mmHg 81%
    22:00 +8°C° 0 mm 1 m/S 662 mmHg 82%
    23:00 +8°C° 0 mm 1 m/S 662 mmHg 80%

    Morgen, 4 Juni, Donnerstag

    Zeit Temperatur Niederschläge Wind Luftdruck Luftfeuchtigkeit
    00:00 +8°C° 0 mm 1 m/S 662 mmHg 78%
    01:00 +8°C° 0 mm 1 m/S 662 mmHg 76%
    02:00 +8°C° 0 mm 1 m/S 662 mmHg 75%
    03:00 +8°C° 0 mm 1 m/S 662 mmHg 74%
    04:00 +8°C° 0 mm 1 m/S 662 mmHg 72%
    05:00 +10°C° 0 mm 1 m/S 663 mmHg 68%
    06:00 +12°C° 0 mm 1 m/S 663 mmHg 64%
    07:00 +14°C° 0 mm 1 m/S 664 mmHg 59%
    08:00 +15°C° 0 mm 1 m/S 665 mmHg 56%
    09:00 +17°C° 0 mm 2 m/S 665 mmHg 52%
    10:00 +18°C° 0 mm 2 m/S 666 mmHg 49%
    11:00 +19°C° 0 mm 2 m/S 666 mmHg 48%
    12:00 +19°C° 0 mm 2 m/S 666 mmHg 47%
    13:00 +20°C° 0 mm 3 m/S 666 mmHg 46%
    14:00 +20°C° 0 mm 3 m/S 666 mmHg 47%
    15:00 +19°C° 0 mm 3 m/S 666 mmHg 49%
    16:00 +19°C° 0 mm 3 m/S 666 mmHg 50%
    17:00 +17°C° 0 mm 3 m/S 665 mmHg 58%
    18:00 +14°C° 0 mm 2 m/S 665 mmHg 65%
    19:00 +12°C° 0 mm 2 m/S 664 mmHg 73%
    20:00 +10°C° 0 mm 2 m/S 664 mmHg 75%
    21:00 +10°C° 0 mm 2 m/S 664 mmHg 77%
    22:00 +9°C° 0 mm 2 m/S 664 mmHg 79%
    23:00 +8°C° 0 mm 2 m/S 664 mmHg 80%

    übermorgen, 5 Juni, Freitag

    Zeit Temperatur Niederschläge Wind Luftdruck Luftfeuchtigkeit
    00:00 +8°C° 0 mm 2 m/S 663 mmHg 80%
    01:00 +8°C° 0 mm 2 m/S 663 mmHg 80%
    02:00 +8°C° 0 mm 2 m/S 663 mmHg 78%
    03:00 +8°C° 0 mm 2 m/S 663 mmHg 75%
    04:00 +8°C° 0 mm 2 m/S 662 mmHg 73%
    05:00 +9°C° 0 mm 2 m/S 663 mmHg 69%
    06:00 +12°C° 0 mm 2 m/S 664 mmHg 65%
    07:00 +14°C° 0 mm 2 m/S 664 mmHg 61%
    08:00 +14°C° 0 mm 3 m/S 665 mmHg 55%
    09:00 +17°C° 0 mm 3 m/S 665 mmHg 50%
    10:00 +19°C° 0 mm 3 m/S 665 mmHg 44%
    11:00 +19°C° 0 mm 3 m/S 665 mmHg 45%
    12:00 +20°C° 0 mm 3 m/S 665 mmHg 45%
    13:00 +20°C° 0 mm 3 m/S 665 mmHg 46%
    14:00 +19°C° 0 mm 3 m/S 664 mmHg 49%
    15:00 +19°C° 0 mm 3 m/S 664 mmHg 53%
    16:00 +18°C° 0 mm 3 m/S 663 mmHg 56%
    17:00 +16°C° 0 mm 3 m/S 663 mmHg 62%
    18:00 +14°C° 0 mm 2 m/S 662 mmHg 67%
    19:00 +13°C° 0 mm 1 m/S 662 mmHg 72%
    20:00 +12°C° 0.8 mm 1 m/S 662 mmHg 78%
    21:00 +11°C° 0.8 mm 1 m/S 662 mmHg 83%
    22:00 +11°C° 0.8 mm 1 m/S 662 mmHg 89%
    23:00 +11°C° 0.5 mm 1 m/S 662 mmHg 89%

    6 Juni, Samstag

    Zeit Temperatur Niederschläge Wind Luftdruck Luftfeuchtigkeit
    00:00 +11°C° 0.5 mm 1 m/S 661 mmHg 90%
    01:00 +11°C° 0.5 mm 1 m/S 661 mmHg 90%
    02:00 +11°C° 0.6 mm 1 m/S 661 mmHg 91%
    03:00 +10°C° 0.6 mm 1 m/S 661 mmHg 92%
    04:00 +10°C° 0.6 mm 1 m/S 661 mmHg 93%
    05:00 +11°C° 0 mm 1 m/S 662 mmHg 88%
    06:00 +13°C° 0 mm 1 m/S 662 mmHg 82%
    07:00 +13°C° 0 mm 0 m/S 663 mmHg 77%
    08:00 +15°C° 0.1 mm 1 m/S 663 mmHg 72%
    09:00 +18°C° 0.1 mm 1 m/S 664 mmHg 67%
    10:00 +19°C° 0.1 mm 1 m/S 664 mmHg 62%
    11:00 +18°C° 0.5 mm 2 m/S 664 mmHg 63%
    12:00 +18°C° 0.5 mm 2 m/S 664 mmHg 64%
    13:00 +18°C° 0.5 mm 2 m/S 664 mmHg 65%
    14:00 +18°C° 0.3 mm 2 m/S 664 mmHg 67%
    15:00 +18°C° 0.3 mm 2 m/S 664 mmHg 69%
    16:00 +18°C° 0.3 mm 3 m/S 664 mmHg 71%
    17:00 +16°C° 0.1 mm 2 m/S 664 mmHg 78%
    18:00 +15°C° 0.1 mm 2 m/S 663 mmHg 84%
    19:00 +13°C° 0.1 mm 1 m/S 663 mmHg 90%
    20:00 +12°C° 0 mm 1 m/S 663 mmHg 92%
    21:00 +12°C° 0 mm 1 m/S 664 mmHg 93%
    22:00 +10°C° 0 mm 0 m/S 664 mmHg 94%
    23:00 +10°C° 0 mm 0 m/S 664 mmHg 93%

    7 Juni, Sonntag

    Zeit Temperatur Niederschläge Wind Luftdruck Luftfeuchtigkeit
    00:00 +10°C° 0 mm 0 m/S 663 mmHg 92%
    01:00 +9°C° 0 mm 0 m/S 663 mmHg 92%
    02:00 +9°C° 0 mm 0 m/S 663 mmHg 90%
    03:00 +9°C° 0 mm 0 m/S 663 mmHg 89%
    04:00 +9°C° 0 mm 1 m/S 663 mmHg 87%
    05:00 +11°C° 0 mm 1 m/S 664 mmHg 81%
    06:00 +13°C° 0 mm 1 m/S 664 mmHg 74%
    07:00 +15°C° 0 mm 1 m/S 665 mmHg 68%
    08:00 +18°C° 0 mm 1 m/S 666 mmHg 62%
    09:00 +19°C° 0 mm 1 m/S 666 mmHg 56%
    10:00 +20°C° 0 mm 2 m/S 667 mmHg 51%
    11:00 +20°C° 0 mm 2 m/S 667 mmHg 49%
    12:00 +21°C° 0 mm 2 m/S 667 mmHg 48%
    13:00 +21°C° 0 mm 3 m/S 667 mmHg 47%
    14:00 +21°C° 0 mm 3 m/S 667 mmHg 50%
    15:00 +21°C° 0 mm 3 m/S 666 mmHg 53%
    16:00 +20°C° 0 mm 3 m/S 666 mmHg 57%
    17:00 +18°C° 0 mm 2 m/S 666 mmHg 67%
    18:00 +16°C° 0 mm 2 m/S 665 mmHg 77%
    19:00 +14°C° 0 mm 1 m/S 665 mmHg 87%
    20:00 +14°C° 0 mm 1 m/S 665 mmHg 88%
    21:00 +13°C° 0 mm 1 m/S 665 mmHg 90%
    22:00 +13°C° 0 mm 1 m/S 665 mmHg 91%
    23:00 +12°C° 0 mm 1 m/S 665 mmHg 90%

    8 Juni, Montag

    Zeit Temperatur Niederschläge Wind Luftdruck Luftfeuchtigkeit
    00:00 +12°C° 0 mm 1 m/S 665 mmHg 89%
    01:00 +11°C° 0 mm 0 m/S 665 mmHg 89%
    02:00 +11°C° 0 mm 1 m/S 664 mmHg 87%
    03:00 +11°C° 0 mm 1 m/S 664 mmHg 86%
    04:00 +11°C° 0 mm 1 m/S 664 mmHg 85%
    05:00 +13°C° 0 mm 1 m/S 664 mmHg 79%
    06:00 +15°C° 0 mm 1 m/S 665 mmHg 72%
    07:00 +18°C° 0 mm 1 m/S 666 mmHg 66%
    08:00 +19°C° 0 mm 1 m/S 666 mmHg 63%
    09:00 +20°C° 0 mm 1 m/S 667 mmHg 59%
    10:00 +20°C° 0 mm 2 m/S 667 mmHg 56%
    11:00 +21°C° 0 mm 2 m/S 667 mmHg 55%
    12:00 +21°C° 0 mm 3 m/S 667 mmHg 55%
    13:00 +21°C° 0 mm 3 m/S 667 mmHg 54%
    14:00 +21°C° 0.1 mm 2 m/S 666 mmHg 56%
    15:00 +21°C° 0.1 mm 2 m/S 666 mmHg 58%
    16:00 +20°C° 0.1 mm 2 m/S 665 mmHg 59%
    17:00 +20°C° 0 mm 1 m/S 665 mmHg 66%
    18:00 +18°C° 0 mm 1 m/S 665 mmHg 72%
    19:00 +15°C° 0 mm 1 m/S 664 mmHg 78%
    20:00 +15°C° 0 mm 1 m/S 665 mmHg 80%
    21:00 +14°C° 0 mm 1 m/S 665 mmHg 82%
    22:00 +13°C° 0 mm 1 m/S 665 mmHg 83%
    23:00 +13°C° 0 mm 1 m/S 665 mmHg 83%
    Mehr zeigen